Tracking 19242 objects as of 15-Aug-2018
HD Live streaming from Space Station
objects crossing your sky now

FENGYUN 1C DEB

Track FENGYUN 1C DEB now!
10-day predictions


NORAD ID: 30454
Int'l Code: 1999-025AFR
Perigee: 763.9 km
Apogee: 1,076.6 km
Inclination: 98.1 °
Period: 103.3 minutes
Semi major axis: 7291 km
RCS: 0.027 m2 (small)
Launch date: May 10, 1999
Source: People's Republic of China (PRC)
Launch site: Taiyaun Space Center, China (TSC)

Note: This is SATELLITE DEBRIS
aabbcc
Your satellite tracking list
Your tracking list is empty




NASA's NSSDC Master Catalog

Two Line Element Set (TLE):
1 30454U 99025AFR 18226.62366772  .00000598  00000-0  39368-3 0  9993
2 30454  98.1348  93.2530 0214396 224.4409 190.9743 13.94440379585132
Source of the keplerian elements: AFSPC